Le nostre stazioni meteo in Italia

Pubblicità
Il mio iltempo24.it
Capo Carbonara, Italia (16564): Temperatura & dewpoint: 10.12.2017 17:00:00 - 16.12.2017 17:00:00 (CET)Capo Carbonara, Italia (16564): velocità del vento: 10.12.2017 17:00:00 - 16.12.2017 17:00:00 (CET)Capo Carbonara, Italia (16564): direzione del vento: 10.12.2017 17:00:00 - 16.12.2017 17:00:00 (CET)Capo Carbonara, Italia (16564): reduced air pressure: 10.12.2017 17:00:00 - 16.12.2017 17:00:00 (CET)Capo Carbonara, Italia (16564): visibility: 10.12.2017 17:00:00 - 16.12.2017 17:00:00 (CET)
Data & Tempo tt [°C] td [°C] ff [km/h] ff [kn] dd ppp [hPa] vv [km]
16.12.2017 17:00:00 - - - - - - -
16.12.2017 16:00:00 - - - - - - -
16.12.2017 15:00:00 - - - - - - -
16.12.2017 14:00:00 - - - - - - -
16.12.2017 13:00:00 11,8 7,1 41 22 OSO 1010,1 20
16.12.2017 12:00:00 12,0 8,0 37 20 OSO - 10
16.12.2017 11:00:00 12,0 6,0 28 15 O - 10
16.12.2017 10:00:00 11,6 6,9 26 14 O 1010,1 20
16.12.2017 09:00:00 12,0 7,0 31 17 O - 10
16.12.2017 08:00:00 12,0 6,0 18 10 OSO - 10
16.12.2017 07:00:00 11,4 5,1 29 16 O 1007,5 18
16.12.2017 06:00:00 11,0 4,0 15 8 ONO - 10
16.12.2017 05:00:00 11,0 4,0 24 13 ONO - 10
16.12.2017 04:00:00 11,2 1,7 9 5 OSO 1007,5 16
16.12.2017 03:00:00 11,0 4,0 35 19 ONO - 10
16.12.2017 02:00:00 11,0 5,0 28 15 O - 10
16.12.2017 01:00:00 11,4 6,9 34 18 O 1007,6 16
16.12.2017 00:00:00 12,0 7,0 37 20 O - 10
15.12.2017 23:00:00 12,0 8,0 37 20 O - 10
15.12.2017 22:00:00 11,8 7,9 39 21 OSO 1006,1 16
15.12.2017 21:00:00 12,0 8,0 46 25 O - 10
15.12.2017 20:00:00 13,0 8,0 44 24 O - 10
15.12.2017 19:00:00 13,4 9,3 59 32 O 1003,2 15
15.12.2017 18:00:00 15,0 11,0 89 48 SO - 10
15.12.2017 17:00:00 16,0 12,0 93 50 SO - 10
15.12.2017 16:00:00 15,6 11,6 93 50 SO 1002,4 15
15.12.2017 15:00:00 16,0 12,0 89 48 SO - 10
15.12.2017 14:00:00 16,0 12,0 85 46 SO - 10
15.12.2017 13:00:00 16,0 12,0 85 46 SSO 1005,1 15
15.12.2017 12:00:00 16,0 12,0 74 40 SSO - 10
15.12.2017 11:00:00 16,0 12,0 61 33 SSO - 10
15.12.2017 10:00:00 15,2 11,4 68 37 SSO 1008,3 15
15.12.2017 09:00:00 15,0 11,0 59 32 SSO - 10
15.12.2017 08:00:00 15,0 11,0 59 32 SSO - 10
15.12.2017 07:00:00 15,0 11,0 68 37 SSO 1009,8 12
15.12.2017 06:00:00 15,0 11,0 68 37 SO - 10
15.12.2017 05:00:00 15,0 11,0 65 35 SO - 10
15.12.2017 04:00:00 15,0 11,2 67 36 SO 1010,9 18
15.12.2017 03:00:00 15,0 11,0 68 37 SO - 10
15.12.2017 02:00:00 15,0 11,0 81 44 SO - 10
15.12.2017 01:00:00 15,0 11,8 67 36 SO 1012,3 18
15.12.2017 00:00:00 15,0 12,0 54 29 SO - 10
14.12.2017 23:00:00 15,0 12,0 72 39 SO - 10
14.12.2017 22:00:00 15,0 11,2 68 37 SO 1013,8 18
14.12.2017 21:00:00 15,0 11,0 78 42 SO - 10
14.12.2017 20:00:00 15,0 11,0 81 44 SO - 10
14.12.2017 19:00:00 14,6 11,2 80 43 SO 1014,6 18
14.12.2017 18:00:00 15,0 12,0 72 39 SO - 10
14.12.2017 17:00:00 15,0 12,0 54 29 SO - 10
14.12.2017 16:00:00 15,0 11,6 52 28 SO 1016,9 20
14.12.2017 15:00:00 15,0 11,0 41 22 OSO - 10
14.12.2017 14:00:00 16,0 11,0 55 30 SO - 10
14.12.2017 13:00:00 15,2 10,2 48 26 OSO 1018,1 18
14.12.2017 12:00:00 15,0 10,0 48 26 OSO - 10
14.12.2017 11:00:00 15,0 11,0 55 30 OSO - 10
14.12.2017 10:00:00 14,0 9,8 50 27 OSO 1019,0 20
14.12.2017 09:00:00 13,0 9,0 61 33 O - 10
14.12.2017 08:00:00 13,0 9,0 55 30 OSO - 10
14.12.2017 07:00:00 12,6 8,1 48 26 OSO 1019,4 18
14.12.2017 06:00:00 11,0 7,0 42 23 OSO - 10
14.12.2017 05:00:00 10,0 6,0 37 20 OSO - 10
14.12.2017 04:00:00 10,0 6,0 34 18 OSO 1021,1 18
14.12.2017 03:00:00 10,0 5,0 35 19 OSO - 10
14.12.2017 02:00:00 10,0 5,0 21 11 OSO - 10
14.12.2017 01:00:00 10,0 4,8 26 14 O 1022,6 18
14.12.2017 00:00:00 10,0 5,0 31 17 OSO - 10
13.12.2017 23:00:00 10,0 5,0 24 13 OSO - 10
13.12.2017 22:00:00 10,0 4,8 16 9 OSO 1023,4 18
13.12.2017 21:00:00 10,0 5,0 18 10 O - 10
13.12.2017 20:00:00 11,0 1,0 34 18 O - 10
13.12.2017 19:00:00 11,2 3,0 28 15 O 1022,8 18
13.12.2017 18:00:00 14,0 4,0 28 15 O - 10
13.12.2017 17:00:00 14,0 4,0 28 15 O - 10
13.12.2017 16:00:00 14,6 4,9 37 20 O 1021,7 20
13.12.2017 15:00:00 15,0 5,0 41 22 O - 10
13.12.2017 14:00:00 15,0 6,0 48 26 O - 10
13.12.2017 13:00:00 15,0 6,8 48 26 O 1021,2 20
13.12.2017 12:00:00 14,0 8,0 50 27 O - 10
13.12.2017 11:00:00 13,0 9,0 48 26 O - 10
13.12.2017 10:00:00 13,0 8,5 46 25 O 1020,7 18
13.12.2017 09:00:00 12,0 8,0 39 21 O - 10
13.12.2017 08:00:00 12,0 8,0 29 16 OSO - 10
13.12.2017 07:00:00 12,6 9,1 34 18 O 1019,4 10
13.12.2017 06:00:00 13,0 9,0 41 22 OSO - 10
13.12.2017 05:00:00 13,0 9,0 37 20 O - 10
13.12.2017 04:00:00 13,4 10,0 31 17 O 1018,2 10
13.12.2017 03:00:00 14,0 10,0 34 18 O - 10
13.12.2017 02:00:00 14,0 9,0 39 21 OSO - 10
13.12.2017 01:00:00 14,2 8,6 42 23 O 1017,5 10
13.12.2017 00:00:00 15,0 9,0 29 16 O - 10
12.12.2017 23:00:00 15,0 10,0 31 17 O - 10
12.12.2017 22:00:00 14,8 10,2 34 18 O 1016,6 10
12.12.2017 21:00:00 15,0 10,0 31 17 O - 10
12.12.2017 20:00:00 15,0 11,0 29 16 O - 10
12.12.2017 19:00:00 15,0 11,4 28 15 OSO 1014,8 10
12.12.2017 18:00:00 15,0 12,0 21 11 SSO - 10
12.12.2017 17:00:00 15,0 13,0 18 10 S - 10
12.12.2017 16:00:00 17,0 14,8 11 6 S 1013,2 10
12.12.2017 15:00:00 19,0 15,0 15 8 OSO - 10
12.12.2017 14:00:00 19,0 15,0 15 8 SSO - 10
12.12.2017 13:00:00 18,0 14,5 21 11 SO 1012,8 12
12.12.2017 12:00:00 18,0 15,0 24 13 SSO - 10
12.12.2017 11:00:00 17,0 13,0 16 9 SO - 10
12.12.2017 10:00:00 15,8 12,4 24 13 SO 1012,6 12
12.12.2017 09:00:00 15,0 12,0 26 14 OSO - 10
12.12.2017 08:00:00 15,0 12,0 26 14 O - 10
12.12.2017 07:00:00 16,0 12,6 29 16 O 1009,5 12
12.12.2017 06:00:00 17,0 12,0 34 18 O - 10
12.12.2017 05:00:00 16,0 12,0 39 21 O - 10
12.12.2017 04:00:00 15,6 12,0 26 14 OSO 1006,9 15
12.12.2017 03:00:00 16,0 12,0 18 10 SO - 10
12.12.2017 02:00:00 16,0 12,0 18 10 SO - 10
12.12.2017 01:00:00 15,8 12,4 15 8 SO 1006,1 15
12.12.2017 00:00:00 16,0 12,0 15 8 SSO - 10
11.12.2017 23:00:00 16,0 12,0 18 10 SO - 10
11.12.2017 22:00:00 16,0 12,5 39 21 S 1004,9 15
11.12.2017 21:00:00 16,0 13,0 46 25 S - 10
11.12.2017 20:00:00 16,0 13,0 48 26 S - 10
11.12.2017 19:00:00 16,0 12,2 37 20 S 1004,9 15
11.12.2017 18:00:00 16,0 13,0 26 14 S - 10
11.12.2017 17:00:00 16,0 13,0 29 16 S - 10
11.12.2017 16:00:00 16,0 12,5 34 18 S 1004,9 15
11.12.2017 15:00:00 16,0 13,0 39 21 S - 10
11.12.2017 14:00:00 17,0 13,0 39 21 S - 10
11.12.2017 13:00:00 16,4 13,1 42 23 S 1005,3 20
11.12.2017 12:00:00 16,0 13,0 42 23 S - 10
11.12.2017 11:00:00 17,0 14,0 48 26 S - 10
11.12.2017 10:00:00 16,2 13,1 42 23 S 1006,5 20
11.12.2017 09:00:00 16,0 13,0 50 27 S - 10
11.12.2017 08:00:00 16,0 13,0 48 26 S - 10
11.12.2017 07:00:00 15,2 12,2 48 26 S 1007,0 18
11.12.2017 06:00:00 16,0 13,0 50 27 S - 10
11.12.2017 05:00:00 16,0 13,0 50 27 S - 10
11.12.2017 04:00:00 16,0 12,9 50 27 S 1008,7 18
11.12.2017 03:00:00 16,0 13,0 57 31 SSO - 10
11.12.2017 02:00:00 16,0 13,0 48 26 SO - 10
11.12.2017 01:00:00 16,0 12,9 48 26 OSO 1010,7 18
11.12.2017 00:00:00 16,0 13,0 59 32 SSO - 10
10.12.2017 23:00:00 16,0 13,0 61 33 SSO - 10
10.12.2017 22:00:00 15,8 12,9 65 35 S 1012,2 18
10.12.2017 21:00:00 15,0 13,0 67 36 SO - 10
10.12.2017 20:00:00 15,0 12,0 70 38 S - 10
10.12.2017 19:00:00 14,6 11,7 65 35 ENE 1013,4 18
10.12.2017 18:00:00 14,0 12,0 63 34 S - 10
10.12.2017 17:00:00 14,0 12,0 50 27 SSO - 10

tt = Temperatura
td = dewpoint
ff = velocità del vento
dd = direzione del vento
ppp = reduced air pressure
vv = visibility

Stazioni seguenti

WeatherPro
AMSI
MeteoEarth